Weather History for KDLS - July, 2014

Change the Weather History Date:

Tuesday, July 15, 2014

  Actual Average Record
Temperature  
Mean Temperature 83 °F -  
Max Temperature 100 °F 87 °F 102 °F (1971)
Min Temperature 66 °F 59 °F 51 °F (1976)
Cooling Degree Days 18    
Growing Degree Days 33 (Base 50)    
Moisture  
Dew Point 60 °F    
Average Humidity 47    
Maximum Humidity 76    
Minimum Humidity 22    
Precipitation  
Precipitation 0.00 in - - ()
Sea Level Pressure  
Sea Level Pressure 29.92 in    
Wind  
Wind Speed 11 mph (NW)    
Max Wind Speed 20 mph    
Max Gust Speed 26 mph    
Visibility 10 miles    
Events      
Averages and records for this station are not official NWS values.
T = Trace of Precipitation, MM = Missing Value Source: NWS Daily Summary

Daily Weather History Graph

Daily Weather History Graph

Search for Another Location

Airport or City:

Trip Planner

Search our weather history database for the weather conditions in past years. The results will help you decide how hot, cold, wet, or windy it might be!

Date:

Astronomy

Jul. 15, 2014 Rise Set
Actual Time 5:30 AM PDT 8:50 PM PDT
Civil Twilight 4:53 AM PDT 9:27 PM PDT
Nautical Twilight 4:05 AM PDT 10:14 PM PDT
Astronomical Twilight 3:05 AM PDT 11:14 PM PDT
Moon 10:45 PM PDT (7/15) 9:44 AM PDT (7/15)
Length of Visible Light 16h 33m
Length of Day
15h 20m
Waning Gibbous, 84% of the Moon is Illuminated
Jul 15
Waning Gibbous
Jul 18
Last Quarter
Jul 26
New
Aug 3
First Quarter
Aug 10
Full

Hourly Weather History & Observations

Time (PDT) Temp. Heat Index Dew Point Humidity Pressure Visibility Wind Dir Wind Speed Gust Speed Precip Events Conditions
12:53 AM 77.0 °F - 61.0 °F 58% 29.97 in 10.0 mi NNW 16.1 mph 26.5 mph N/A   Clear
1:53 AM 75.0 °F - 61.0 °F 62% 29.98 in 10.0 mi NW 13.8 mph 21.9 mph N/A   Clear
2:53 AM 70.0 °F - 57.9 °F 65% 29.99 in 10.0 mi Calm Calm - N/A   Clear
3:53 AM 71.1 °F - 61.0 °F 70% 29.99 in 10.0 mi NNW 11.5 mph - N/A   Clear
4:53 AM 66.9 °F - 59.0 °F 76% 30.00 in 10.0 mi Calm Calm - N/A   Clear
5:53 AM 69.1 °F - 60.1 °F 73% 30.01 in 10.0 mi NW 6.9 mph - N/A   Clear
6:53 AM 70.0 °F - 61.0 °F 73% 30.02 in 10.0 mi NNW 6.9 mph - N/A   Clear
7:53 AM 72.0 °F - 61.0 °F 68% 30.02 in 10.0 mi NW 8.1 mph - N/A   Clear
8:53 AM 75.0 °F - 61.0 °F 62% 30.02 in 10.0 mi NW 6.9 mph - N/A   Clear
9:53 AM 80.1 °F 81.1 °F 61.0 °F 52% 30.00 in 10.0 mi NNW 10.4 mph - N/A   Clear
10:53 AM 82.9 °F 83.3 °F 61.0 °F 47% 29.97 in 10.0 mi NW 10.4 mph - N/A   Clear
11:53 AM 89.1 °F 88.8 °F 60.1 °F 38% 29.95 in 10.0 mi NNW 15.0 mph - N/A   Clear
12:53 PM 93.9 °F 93.2 °F 59.0 °F 31% 29.92 in 10.0 mi NNW 12.7 mph - N/A   Clear
1:53 PM 96.1 °F 95.2 °F 57.9 °F 28% 29.90 in 10.0 mi NNW 15.0 mph - N/A   Clear
2:53 PM 98.1 °F 97.2 °F 57.9 °F 26% 29.87 in 10.0 mi NNW 17.3 mph - N/A   Clear
3:53 PM 100.0 °F 98.3 °F 55.0 °F 22% 29.85 in 10.0 mi NNW 16.1 mph - N/A   Clear
4:53 PM 100.0 °F 98.8 °F 55.9 °F 23% 29.83 in 10.0 mi NNW 15.0 mph - N/A   Clear
5:53 PM 99.0 °F 98.1 °F 57.9 °F 25% 29.81 in 10.0 mi NNW 13.8 mph - N/A   Clear
6:53 PM 97.0 °F 96.1 °F 57.9 °F 27% 29.81 in 10.0 mi NW 10.4 mph - N/A   Clear
7:28 PM 95.0 °F 94.4 °F 59.0 °F 30% 29.82 in 10.0 mi NNW 8.1 mph - N/A   Partly Cloudy
7:53 PM 93.0 °F 93.8 °F 62.1 °F 36% 29.81 in 10.0 mi NW 11.5 mph - N/A   Clear
8:53 PM 89.1 °F 89.3 °F 62.1 °F 40% 29.82 in 10.0 mi NW 13.8 mph 23.0 mph N/A   Clear
9:53 PM 86.0 °F 87.3 °F 64.0 °F 48% 29.83 in 10.0 mi NW 13.8 mph 23.0 mph N/A   Clear
10:53 PM 82.9 °F 84.4 °F 64.0 °F 53% 29.84 in 10.0 mi NNW 19.6 mph - N/A   Clear
11:53 PM 82.0 °F 83.4 °F 64.0 °F 54% 29.85 in 10.0 mi NW 15.0 mph - N/A   Clear